Home   Weather   Yonkers   Past weeks

Flag for USA Past Weather in Yonkers, New York, USA — Yesterday and Last 2 Weeks

Now
45 °F

Sunny.


Feels Like: 44 °F
Forecast: 45 / 64 °F
Wind: 3 mph from Northwest

Location: Teterboro Airport

Current Time: Apr 23, 2017 at 7:59:11 am

Latest Report: Apr 23, 2017 at 6:51 am


Visibility: 10 mi

Pressure: 30.09 "Hg

Humidity: 71%

Dew Point: 36 °F

Location of YonkersLocation

Past Weather in Yonkers — Graph

°F

Yonkers Temperature Yesterday

Maximum temperature yesterday: 56 °F (at 10:51 am)
Minimum temperature yesterday: 50 °F (at 12:51 am)
Average temperature yesterday: 54 °F

High & Low Weather Summary for the Past Weeks

 TemperatureHumidityPressure
High88 °F (Apr 16, 1:51 pm)96% (Apr 21, 11:01 pm)30.53 "Hg (Apr 21, 11:01 pm)
Low37 °F (Apr 9, 6:51 am)21% (Apr 9, 2:51 pm)29.72 "Hg (Apr 8, 5:51 am)
Average58 °F57%30.12 "Hg
* Reported Apr 8 5:51 am — Apr 23 5:51 am, Yonkers, Weather by CustomWeather, © 2017

Note: Actual official high and low records may vary slightly from our data, if they occured in-between our weather recording intervals... More about our weather records

Advertising

Yonkers Weather History for the Previous 24 Hours

Scroll right to see more
 ConditionsComfort  
Time TempWeatherWind HumidityBarometerVisibility
5:51 am
Sun, Apr 23
46 °FClear.5 mph66%30.06 "Hg10 mi
4:51 am47 °FClear.8 mph64%30.04 "Hg10 mi
3:51 am47 °FClear.7 mph69%30.03 "Hg10 mi
2:51 am47 °FClear.7 mph71%30.02 "Hg10 mi
1:51 am48 °FClear.6 mph68%30.02 "Hg10 mi
12:51 am49 °FClear.7 mph66%30.03 "Hg10 mi
11:51 pm
Sat, Apr 22
51 °FPassing clouds.7 mph61%30.01 "Hg10 mi
10:51 pm52 °FOvercast.7 mph59%29.98 "Hg10 mi
9:51 pm53 °FPassing clouds.8 mph59%29.99 "Hg10 mi
8:51 pm54 °FPassing clouds.12 mph62%29.96 "Hg10 mi
7:51 pm55 °FPassing clouds.No wind67%29.95 "Hg10 mi
6:51 pm55 °FOvercast.3 mph69%29.93 "Hg10 mi
5:51 pm55 °FDrizzle. Overcast.10 mph74%29.93 "Hg10 mi
4:58 pm55 °FDrizzle. Overcast.5 mph87%29.93 "Hg10 mi
3:51 pm54 °FDrizzle. Mostly cloudy.No wind90%29.91 "Hg8 mi
2:51 pm56 °FLight rain. Overcast.5 mph81%29.91 "Hg8 mi
2:41 pm56 °FLight rain. Overcast.No wind81%29.92 "Hg8 mi
1:51 pm56 °FDrizzle. Overcast.3 mph75%29.91 "Hg10 mi
1:29 pm56 °FDrizzle. Overcast.5 mph77%29.91 "Hg10 mi
1:02 pm55 °FDrizzle. Mostly cloudy.6 mph80%29.91 "Hg10 mi
12:41 pm55 °FLight rain. More clouds than sun.5 mph83%29.92 "Hg4 mi
12:22 pm55 °FDrizzle. Mostly cloudy.6 mph77%29.92 "Hg9 mi
11:51 am56 °FDrizzle. More clouds than sun.7 mph77%29.93 "Hg7 mi
10:51 am56 °FDrizzle. More clouds than sun.6 mph75%29.93 "Hg10 mi
9:51 am54 °FDrizzle. Overcast.5 mph77%29.93 "Hg10 mi
8:58 am54 °FOvercast.5 mph83%29.92 "Hg10 mi
8:00 am53 °FLight rain. Mostly cloudy.6 mph86%29.91 "Hg10 mi
Weather by CustomWeather, © 2017

See weather overviewHow to use our weather pages